Terminal Aerodrome Forecast
Issued by NWS

Home | Current Version | Previous Version | Graphics & Text | Print | Product List | Glossary On
Versions: 1 2 3 4 5 6 7 8 9 10 11 12 13 14 15 16 17 18 19 20 21 22
678
FTUS43 KUNR 121504 AAD
TAFGCC
TAF AMD
KGCC 121504Z 1215/1312 02005KT P6SM OVC005
     FM121700 12005KT P6SM OVC025
     FM121900 13007KT P6SM OVC090
     FM130100 19015KT P6SM OVC012=

USA.gov is the U.S. government's official web portal to all federal, state and local government web resources and services.